Hourly Data Report for September 18, 2017

All times are specified in Local Standard Time (LST). Add 1 hour to adjust for Daylight Saving Time where and when it is observed.

BAKER LAKE A
NUNAVUT

64°17'56.000" N
96°04'40.000" W
18.60 m
2300503
71926
YBK

Download Data

Hourly Data (September 2017)
Hourly Data Report for September 18, 2017
Temp Definition
°C
Dew Point Temp Definition
°C
Rel Hum Definition
%
Wind Dir Definition
10's deg

Wind Spd Definition
km/h
Visibility Definition
km
Stn Press Definition
kPa
Hmdx Definition


Wind Chill Definition


Weather Definition


TIME
00:00 Legend Double Dagger 5.4 4.7 95 16 12 24.1 101.26     Clear
01:00
02:00 Legend Double Dagger 5.4 5.0 98 17 14 24.1 101.25     LegendNANA
03:00 Legend Double Dagger 5.3 5.1 99 17 16 24.1 101.21     Clear
04:00 Legend Double Dagger 5.5 5.0 97 14 20 24.1 101.20     LegendNANA
05:00 Legend Double Dagger 5.1 4.6 96 15 19 24.1 101.21     LegendNANA
06:00 Legend Double Dagger 4.4 3.7 95 16 19 24.1 101.20     Cloudy
07:00 Legend Double Dagger 3.8 3.3 97 17 16 24.1 101.17     LegendNANA
08:00 Legend Double Dagger 3.8 3.3 96 17 15 24.1 101.16     Drizzle
09:00 Legend Double Dagger 4.1 3.5 96 17 16 16.1 101.18     Cloudy
10:00 Legend Double Dagger 4.8 4.4 97 13 13 1.6 101.17     Fog
11:00 Legend Double Dagger 6.5 4.7 88 17 15 40.2 101.17     LegendNANA
12:00 Legend Double Dagger 8.8 5.7 81 15 16 40.2 101.15     Mostly Cloudy
13:00 Legend Double Dagger 10.2 5.1 71 18 13 40.2 101.13     LegendNANA
14:00 Legend Double Dagger 10.1 5.7 74 16 16 40.2 101.12     LegendNANA
15:00 Legend Double Dagger 10.8 5.5 70 16 16 40.2 101.10     Mostly Cloudy
16:00 Legend Double Dagger 9.0 5.2 77 17 20 40.2 101.11     LegendNANA
17:00 Legend Double Dagger 8.4 4.9 78 18 15 40.2 101.10     LegendNANA
18:00 Legend Double Dagger 6.6 4.5 86 19 12 40.2 101.12     Mostly Cloudy
19:00 Legend Double Dagger 5.0 4.0 93 18 12 40.2 101.11     LegendNANA
20:00 Legend Double Dagger 4.5 4.0 97 18 5 24.1 101.13     LegendNANA
21:00 Legend Double Dagger 4.0 3.3 95 18 3 32.2 101.14     Mainly Clear
22:00 Legend Double Dagger 4.0 3.6 97 21 13 24.1 101.14     LegendNANA
23:00 Legend Double Dagger 3.6 3.1 97 23 8 24.1 101.19     LegendNANA

Notes on Data Quality.

Legend

  • E = Estimated
  • M = Missing
  • NA = Not Available
  • ‡ = Partner data that is not subject to review by the National Climate Archives
Date modified: